CAPE
0 1 2 3 3 4 4 5 4 4 4 4 4 4 3 3 2 2 1 nan nan 0 nan 0 0 2 1 nan nan nan 0 1 3 3 4 4 5 5 8 7 7 5 3 3 3 3 1 0 0 nan nan nan nan nan nan 0 0 1 2 5 5 10 14 18 18 20 22 22 24 24 26 24 18 18 2 nan nan nan nan 0 0 2 9 15 15 20
0 1 2 2 2 4 4 4 2 2 2 2 2 2 1 2 1 1 0 nan nan nan nan nan nan nan 1 nan nan nan 0 1 2 2 3 3 5 5 7 6 6 4 2 2 2 1 nan nan nan nan nan nan nan nan nan nan nan 0 1 3 3 5 8 10 10 12 14 14 15 15 14 12 5 5 1 0 0 0 1 3 3 7 10 13 13 17
0 1 1 2 2 2 1 3 3 3 2 2 1 1 2 1 0 0 nan nan nan nan nan nan nan nan nan nan nan nan nan 0 1 1 2 2 4 4 5 4 4 3 2 1 1 nan nan nan nan nan nan nan nan nan nan nan nan 0 1 2 2 3 5 7 7 8 10 11 12 12 10 8 3 3 1 2 4 4 7 9 9 9 11 12 12 16
nan nan 1 1 1 1 1 1 2 2 1 1 1 1 2 1 0 0 nan nan nan nan nan nan nan nan nan nan nan nan nan 0 0 0 1 1 2 2 2 2 2 1 1 0 0 nan nan nan nan nan nan nan nan nan nan nan nan nan 0 1 1 2 4 6 6 8 9 9 9 9 9 7 6 6 4 4 8 8 9 10 10 9 9 11 11 15
nan nan 0 1 1 1 1 1 0 0 0 0 0 0 1 nan 0 0 nan nan nan nan nan nan nan nan nan nan nan nan nan nan nan nan nan nan nan nan 0 0 0 0 nan nan nan nan nan nan nan nan nan nan nan nan nan nan nan nan nan nan nan 0 2 5 5 7 9 9 8 8 8 7 8 8 8 8 9 9 9 11 11 9 9 11 11 13
nan nan 0 0 0 1 1 1 0 0 0 nan nan nan nan nan nan nan nan nan nan nan nan nan nan nan nan nan nan nan nan nan nan nan nan nan nan nan nan nan nan nan nan nan nan nan nan nan nan nan nan nan nan nan nan nan nan nan nan nan nan nan nan 1 1 5 8 9 11 11 10 9 9 9 8 8 9 9 11 11 11 10 10 9 9 12
nan nan nan 0 0 0 1 1 nan nan nan nan nan nan nan nan nan nan nan nan nan nan nan nan nan nan nan nan nan nan nan nan nan nan nan nan nan nan nan nan nan nan nan nan nan nan nan nan nan nan nan nan nan nan nan nan nan nan nan nan nan nan nan nan nan 1 6 10 13 13 14 12 10 10 10 8 9 9 11 11 11 12 10 10 10 11
nan nan nan 0 0 0 1 nan nan nan nan nan nan nan nan nan nan nan nan nan nan nan nan nan nan nan nan nan nan nan nan nan nan nan nan nan nan nan nan nan nan nan nan nan nan nan nan nan nan nan nan nan nan nan nan nan nan nan nan nan nan nan nan nan nan nan 0 5 11 11 16 19 17 17 17 16 14 14 13 14 14 13 14 15 15 17
nan nan nan nan nan nan nan nan nan nan nan nan nan nan nan nan nan nan nan nan nan nan nan nan nan nan nan nan nan nan nan nan nan nan nan nan nan nan nan nan nan nan nan nan nan nan nan nan nan nan nan nan nan nan nan nan nan nan nan nan nan nan nan nan nan nan nan 2 7 7 15 19 22 22 20 21 17 17 14 13 13 13 13 16 16 20
nan nan nan nan nan nan nan nan nan nan nan nan nan nan nan nan nan nan nan nan nan nan nan nan nan nan nan nan nan nan nan nan nan nan nan nan nan nan nan nan nan nan nan nan nan nan nan nan nan nan nan nan nan nan nan nan nan nan nan nan nan nan nan nan nan nan nan 0 4 4 10 17 22 22 23 21 19 19 17 14 14 11 11 15 15 20
nan nan nan nan nan nan nan nan nan nan nan nan nan nan nan nan nan nan nan nan nan nan nan nan nan nan nan nan nan nan nan nan nan nan nan nan nan nan nan nan nan nan nan nan nan nan nan nan nan nan nan nan nan nan nan nan nan nan nan nan nan nan nan nan nan nan nan 0 1 1 4 9 14 14 19 20 19 19 16 12 12 10 9 14 14 20
nan nan nan nan nan nan nan nan nan nan nan nan nan nan nan nan nan nan nan nan nan nan nan nan nan nan nan nan nan nan nan nan nan nan nan nan nan nan nan nan nan nan nan nan nan nan nan nan nan nan nan nan nan nan nan nan nan nan nan nan nan nan nan nan nan nan nan nan 0 0 1 4 8 8 13 15 14 14 12 10 10 8 10 15 15 22
nan nan nan nan nan nan nan nan nan nan nan nan nan nan nan nan nan nan nan nan nan nan nan nan nan nan nan nan nan nan nan nan nan nan nan nan nan nan nan nan nan nan nan nan nan nan nan nan nan nan nan nan nan nan nan nan nan nan nan nan nan nan nan nan nan nan nan 0 0 0 0 2 4 4 6 9 10 10 10 9 9 9 12 18 18 27
nan nan nan nan nan nan nan nan nan nan nan nan nan nan nan nan nan nan nan nan nan nan nan nan nan nan nan nan nan nan nan nan nan nan nan nan nan nan nan nan nan nan nan nan nan nan nan nan nan nan nan nan nan nan nan nan nan nan nan nan nan nan nan 0 0 1 1 2 2 2 4 4 4 4 5 7 8 8 10 10 10 13 17 23 23 32
nan nan nan nan nan nan nan nan nan nan nan nan nan nan nan nan nan nan nan nan nan nan nan nan nan nan nan nan nan nan nan nan nan nan nan nan nan nan nan nan nan nan nan nan nan nan nan nan nan nan nan nan nan nan nan nan nan nan nan nan nan 1 1 2 2 3 5 6 6 6 8 8 9 9 10 9 11 11 12 13 13 15 21 27 27 33
nan nan nan nan nan nan nan nan nan nan nan nan nan nan nan nan nan nan nan nan nan nan nan nan nan nan nan nan nan nan nan nan nan nan nan nan nan nan nan nan nan nan nan nan nan nan nan nan nan nan nan nan nan nan nan nan nan nan nan 1 1 2 3 4 4 4 7 9 10 10 12 13 15 15 16 17 18 18 17 18 18 22 27 29 29 31
nan nan nan nan nan nan nan nan nan nan nan nan nan nan nan nan nan nan nan nan nan nan nan nan nan nan nan nan nan nan nan nan nan nan nan nan nan nan nan nan nan nan nan nan nan nan nan nan nan nan nan nan nan nan nan nan nan nan 0 1 1 2 3 3 3 5 8 10 12 12 13 16 18 18 22 27 26 26 24 27 27 30 32 30 30 30
nan nan nan nan nan nan nan nan nan nan nan nan nan nan nan nan nan nan nan nan nan nan nan nan nan nan nan nan nan nan nan nan nan nan nan nan nan nan nan nan nan nan nan nan nan nan nan nan nan nan nan nan nan nan nan nan nan nan 0 1 1 1 2 4 4 5 7 8 11 11 13 14 16 16 22 28 30 30 29 31 31 32 33 30 30 31
nan nan nan nan nan nan nan nan nan nan nan nan nan nan nan nan nan nan nan nan nan nan nan nan nan nan nan nan nan nan nan nan nan nan nan nan nan nan nan nan nan nan nan nan nan nan nan nan nan nan nan nan nan nan nan nan nan 0 1 1 1 1 2 2 2 3 4 6 9 9 11 13 15 15 16 20 25 25 30 31 31 34 32 31 31 30
nan nan nan nan nan nan nan nan nan nan nan nan nan nan nan nan nan nan nan nan nan nan nan nan nan nan nan nan nan nan nan nan nan nan nan nan nan nan nan nan nan nan nan nan nan nan nan nan nan nan nan nan nan nan nan nan nan 0 1 1 1 1 1 2 2 3 3 4 5 5 6 10 12 12 13 16 19 19 27 31 31 30 31 30 30 28
nan nan nan nan nan nan nan nan nan nan nan nan nan nan nan nan nan nan nan nan nan nan nan nan nan nan nan nan nan nan nan nan nan nan nan nan nan nan nan nan nan nan nan nan nan nan nan nan nan nan nan nan nan nan nan nan nan 0 1 1 1 2 2 2 2 2 2 2 3 3 3 6 8 8 11 13 16 16 20 26 26 28 29 29 29 30
nan nan nan nan nan nan nan nan nan nan nan nan nan nan nan nan nan nan nan nan nan nan nan nan nan nan nan nan nan nan nan nan nan nan nan nan nan nan nan nan nan nan nan nan nan nan nan nan nan nan nan nan nan nan nan nan nan nan 0 1 1 1 2 2 2 3 4 5 5 5 4 5 6 6 8 11 12 12 15 18 18 21 25 25 25 26
nan nan nan nan nan nan nan nan nan nan nan nan nan nan nan nan nan nan nan nan nan nan nan nan nan nan nan nan nan nan nan nan nan nan nan nan nan nan nan nan nan nan nan nan nan nan nan nan nan nan nan nan nan nan nan nan nan nan 0 1 1 3 3 4 4 5 5 5 6 6 6 6 8 8 9 10 11 11 11 14 14 17 20 21 21 25
nan nan nan nan nan nan nan nan nan nan nan nan nan nan nan nan nan nan nan nan nan nan nan nan nan nan nan nan nan nan nan nan nan nan nan nan nan nan nan nan nan nan nan nan nan nan nan nan nan nan nan nan nan nan nan nan nan nan 0 2 2 2 3 3 3 4 5 6 7 7 7 8 10 10 13 13 13 13 14 15 15 17 19 21 21 20
nan nan nan nan nan nan nan nan nan nan nan nan nan nan nan nan nan nan 0 nan nan nan nan nan nan nan nan nan nan nan nan nan nan nan nan nan nan nan nan nan nan nan nan nan nan nan nan nan nan nan nan nan nan nan nan nan nan nan nan 1 1 1 0 0 0 0 1 3 5 5 7 9 10 10 14 16 16 16 19 17 17 19 19 19 19 18
nan nan nan nan nan nan nan nan 4 4 nan nan nan nan 1 4 2 2 1 nan nan nan nan nan nan nan nan nan nan nan nan nan nan nan nan nan nan nan nan nan nan nan nan nan nan nan nan nan nan nan nan nan nan nan nan nan nan nan nan nan nan nan nan nan nan nan 0 0 1 1 3 6 8 8 10 11 13 13 14 15 15 16 14 13 13 13
nan nan nan nan nan nan nan nan nan nan 1 2 1 1 3 3 1 1 0 0 0 nan nan nan nan nan nan nan nan nan nan nan nan nan nan nan nan nan nan nan nan nan nan nan nan nan nan nan nan nan nan nan nan nan nan nan nan nan nan nan nan nan nan nan nan nan nan nan 0 0 1 2 5 5 6 9 9 9 10 9 9 10 10 9 9 10
nan nan nan nan nan nan nan nan 0 0 2 6 9 9 4 nan nan nan nan nan nan nan nan nan nan nan nan nan nan nan nan nan nan nan nan nan nan nan nan nan nan nan nan nan nan nan nan nan nan nan nan nan nan nan nan nan nan nan nan nan nan nan nan nan nan nan nan nan 0 0 0 1 3 3 5 6 7 7 7 7 7 7 7 4 4 0
nan nan nan nan nan nan nan 0 3 3 5 8 7 7 0 nan nan nan nan nan nan nan nan nan nan nan nan nan nan nan nan nan nan nan nan nan nan nan nan nan nan nan nan nan nan nan nan nan nan nan nan nan nan nan nan nan nan nan nan nan nan 0 0 0 0 nan nan nan nan nan 0 1 2 2 4 5 7 7 7 8 8 8 4 0 0 nan
nan nan 0 1 1 1 0 0 4 4 7 6 3 3 nan nan nan nan nan nan nan nan nan nan nan nan nan nan nan nan nan nan nan nan nan nan nan nan nan nan nan nan nan nan nan nan nan nan nan nan nan nan nan nan nan nan nan nan nan nan nan nan nan nan nan nan nan nan nan nan 0 0 2 2 3 4 5 5 6 8 8 5 nan nan nan nan
nan nan 0 0 0 1 nan nan nan nan 1 2 1 1 nan nan nan nan nan nan nan nan nan nan nan nan nan nan nan nan nan nan nan nan nan nan nan nan nan nan nan nan nan nan nan nan nan nan nan nan nan nan nan nan nan nan nan nan nan nan nan nan nan nan nan nan nan nan nan nan 0 0 0 0 1 3 4 4 5 7 7 4 nan nan nan nan
nan nan nan nan nan nan nan nan nan nan nan nan nan nan nan nan nan nan nan nan nan nan nan nan nan nan nan nan nan nan nan nan nan nan nan nan nan nan nan nan nan nan nan nan nan nan nan nan nan nan nan nan nan nan nan nan nan nan nan nan nan nan nan nan nan nan nan nan 0 0 0 1 0 0 0 0 1 1 2 3 3 4 nan nan nan nan
nan nan nan nan nan nan nan nan nan nan nan nan nan nan nan nan nan nan nan nan nan nan nan nan nan nan nan nan nan nan nan nan nan nan nan nan nan nan nan nan nan nan nan nan nan nan nan nan nan nan nan nan nan nan nan nan nan nan nan nan nan nan nan nan nan nan nan nan nan nan 0 0 0 0 1 1 1 1 2 3 3 4 2 nan nan nan
nan nan nan nan nan nan nan nan nan nan nan nan nan nan nan nan nan nan nan nan nan nan nan nan nan nan nan nan nan nan nan nan nan nan nan nan nan nan nan nan nan nan nan nan nan nan nan nan nan nan nan nan nan nan nan nan nan nan nan nan nan nan nan nan nan nan nan nan nan nan nan nan 0 0 0 1 1 1 2 3 3 4 5 nan nan nan
nan nan nan nan nan nan nan nan nan nan nan nan nan nan nan nan nan nan nan nan nan nan nan nan nan nan nan nan nan nan nan nan nan nan nan nan nan nan nan nan nan nan nan nan nan nan nan nan nan nan nan nan nan nan nan nan nan nan nan nan nan nan nan nan nan nan nan nan nan nan nan nan nan nan nan 0 2 2 2 4 4 4 5 7 7 0
nan nan nan nan nan nan nan nan nan nan nan nan nan nan nan nan nan nan nan nan nan nan nan nan nan nan nan nan nan nan nan nan nan nan nan nan nan nan nan nan nan nan nan nan nan nan nan nan nan nan nan nan nan nan nan nan nan nan nan nan nan nan nan nan nan nan nan nan nan nan nan nan nan nan nan 1 3 3 3 4 4 5 5 7 7 6
nan nan nan nan nan nan nan nan nan nan nan nan nan nan nan nan nan nan nan nan nan nan nan nan nan nan nan nan nan nan nan nan nan nan nan nan nan nan nan nan nan nan nan nan nan nan nan nan nan nan nan nan nan nan nan nan nan nan nan nan nan nan nan nan nan nan nan nan nan nan nan nan nan nan nan 2 1 1 3 5 5 5 6 6 6 7
nan nan nan nan nan nan nan nan nan nan nan nan nan nan nan nan nan nan nan nan nan nan nan nan nan nan nan nan nan nan nan nan nan nan nan nan nan nan nan nan nan nan nan nan nan nan nan nan nan nan nan nan nan nan nan nan nan nan nan nan nan nan nan nan nan nan nan nan 0 0 nan nan nan nan nan nan nan nan nan nan nan 1 4 5 5 7
nan nan nan nan nan nan nan nan nan nan nan nan nan nan nan nan nan nan nan nan nan nan nan nan nan nan nan nan nan nan nan nan nan nan nan nan nan nan nan nan nan nan nan nan nan nan nan nan nan nan nan nan nan nan nan nan nan nan nan nan nan nan nan nan nan nan nan nan nan nan nan nan nan nan nan nan nan nan nan nan nan nan nan nan nan 0
nan nan nan nan nan nan nan nan nan nan nan nan nan nan nan nan nan nan nan nan nan nan nan nan nan nan nan nan nan nan nan nan nan nan nan nan nan nan nan nan nan nan nan nan nan nan nan nan nan nan 0 nan nan nan nan nan nan nan nan nan nan nan nan nan nan nan nan nan nan nan nan nan nan nan nan nan nan nan nan nan nan nan nan nan nan nan
nan nan nan nan nan nan nan nan nan nan nan nan nan nan nan nan nan nan nan nan nan nan nan nan nan nan nan nan nan nan nan nan nan nan nan nan nan nan nan nan nan nan nan nan nan nan 0 nan nan 0 nan nan 0 0 nan nan nan 1 2 nan nan nan nan nan nan nan nan nan nan nan nan nan nan nan nan nan nan nan nan nan nan nan nan nan nan nan
nan nan nan nan nan nan nan nan nan nan nan nan nan nan nan nan nan nan nan nan nan nan nan nan nan nan nan nan nan nan nan nan nan nan nan nan nan nan nan nan nan nan nan nan nan nan 0 nan nan nan nan nan nan nan nan nan nan 0 1 nan nan 0 nan nan nan nan nan nan nan nan nan nan nan nan nan nan nan nan nan nan nan nan nan nan nan nan
nan nan nan nan nan nan nan nan nan nan nan nan nan nan nan nan nan nan nan nan nan nan nan nan nan nan nan nan nan nan nan nan nan nan nan nan nan nan nan nan nan nan nan nan nan nan nan 1 1 0 nan 0 nan nan nan 0 0 nan 0 0 0 nan nan nan nan nan nan nan nan nan nan nan nan nan nan nan nan nan nan nan nan 0 nan nan nan nan
nan nan nan nan nan nan nan nan nan nan nan nan nan nan nan nan nan nan nan nan nan nan nan nan nan nan nan nan nan nan nan nan nan nan nan nan nan nan nan nan nan nan nan nan nan 0 nan 0 0 0 0 0 nan nan nan nan nan nan nan 0 0 nan nan nan nan nan nan nan nan nan nan nan nan nan nan nan nan nan nan nan nan nan nan nan nan nan
nan nan nan nan nan nan nan nan nan nan nan nan nan nan nan nan nan nan nan nan nan nan nan nan nan nan nan nan nan nan nan nan nan nan nan nan nan nan nan nan nan nan nan nan nan nan nan nan nan 0 nan nan 0 0 nan nan nan nan nan 0 0 0 nan nan nan nan nan nan nan nan nan nan nan nan nan nan nan nan nan nan nan nan nan nan nan nan
nan nan nan nan nan nan nan nan nan nan nan nan nan nan nan nan nan nan nan nan nan nan nan nan nan nan nan nan nan nan nan nan nan nan nan nan nan nan nan nan nan nan nan nan nan nan nan nan nan 0 0 0 0 0 0 nan nan nan nan nan nan nan nan nan nan nan nan nan nan nan nan nan nan nan nan nan nan nan nan nan nan nan nan nan nan nan
nan nan nan nan nan nan nan nan nan nan nan nan nan nan nan nan nan nan nan nan nan nan nan nan nan nan nan nan nan nan nan nan nan nan nan nan nan nan nan nan nan nan nan nan nan nan 0 nan nan 0 0 0 nan nan nan nan nan nan nan nan nan 0 0 nan nan nan nan nan nan nan nan nan nan nan nan nan nan nan nan nan nan nan nan nan nan nan
nan nan nan nan nan nan nan nan nan nan nan nan nan nan nan nan nan nan nan nan nan nan nan nan nan nan nan nan nan nan nan nan nan nan nan nan nan nan nan nan nan nan 0 1 1 1 0 0 0 0 0 nan nan nan nan nan nan nan nan nan nan nan nan nan nan nan nan nan nan nan nan nan nan nan nan nan nan nan nan nan nan nan nan nan nan nan
nan nan nan nan nan nan nan nan nan nan nan nan nan nan nan nan nan nan nan nan nan nan nan nan nan nan nan nan nan nan nan nan nan nan nan nan nan nan 0 0 0 0 1 2 2 2 2 0 0 2 1 nan nan nan nan nan nan nan nan nan nan nan nan nan nan nan nan nan nan nan nan nan nan nan nan nan nan nan nan nan nan nan nan nan nan nan
nan nan nan nan nan nan nan nan nan nan nan nan nan nan nan nan nan nan nan nan nan nan nan nan nan nan nan nan nan nan nan nan nan nan nan nan nan nan nan 0 0 1 1 1 1 1 1 2 2 5 7 2 nan nan nan nan nan nan nan nan nan nan nan nan nan nan nan nan nan nan nan nan nan nan 0 0 nan nan nan nan nan nan nan nan nan nan
nan nan nan nan nan nan nan nan nan nan nan nan nan nan nan nan nan nan nan nan nan nan nan nan nan nan nan nan nan nan nan nan nan nan nan nan nan nan nan nan nan nan 0 nan nan 0 0 nan nan nan 2 7 nan nan nan nan nan nan nan nan nan nan nan nan nan nan nan nan nan nan nan nan 0 0 0 0 0 0 nan nan nan nan nan nan nan nan
CIN
-0 -0 -0 -0 -0 -0 -0 -0 -0 -0 -0 -0 -0 -0 -0 -0 -0 -0 -0 nan nan -4 nan -8 -8 -6 -4 nan nan nan -0 -0 -0 -0 -0 -0 -0 -0 -0 -0 -0 -0 -0 -0 -0 -0 -0 -0 -0 nan nan nan nan nan nan -0 -0 -0 -0 -0 -0 -0 -0 -0 -0 -0 -0 -0 -0 -0 -0 -0 -0 -0 -0 nan nan nan nan -0 -0 -0 -0 -0 -0 -0
-0 -0 -0 -0 -0 -0 -0 -0 -0 -0 -0 -0 -0 -0 -0 -0 -0 -0 -0 nan nan nan nan nan nan nan -5 nan nan nan -0 -0 -0 -0 -0 -0 -0 -0 -0 -0 -0 -0 -0 -0 -0 -0 nan nan nan nan nan nan nan nan nan nan nan -0 -0 -0 -0 -0 -0 -0 -0 -0 -0 -0 -0 -0 -0 -0 -0 -0 -0 -0 -0 -0 -0 -0 -0 -0 -0 -0 -0 -0
-0 -0 -0 -0 -0 -0 -0 -0 -0 -0 -0 -0 -0 -0 -0 -0 -0 -0 nan nan nan nan nan nan nan nan nan nan nan nan nan -0 -0 -0 -0 -0 -0 -0 -0 -0 -0 -0 -0 -0 -0 nan nan nan nan nan nan nan nan nan nan nan nan -0 -0 -0 -0 -0 -0 -0 -0 -0 -0 -0 -0 -0 -0 -0 -0 -0 -0 -0 -0 -0 -0 -0 -0 -0 -0 -0 -0 -0
nan nan -0 -0 -0 -0 -0 -0 -0 -0 -0 -0 -0 -0 -0 -0 -0 -0 nan nan nan nan nan nan nan nan nan nan nan nan nan -0 -0 -0 -0 -0 -0 -0 -0 -0 -0 -0 -0 -0 -0 nan nan nan nan nan nan nan nan nan nan nan nan nan -0 -0 -0 -0 -0 -0 -0 -0 -0 -0 -0 -0 -0 -0 -0 -0 -0 -0 -0 -0 -0 -0 -0 -0 -0 -0 -0 -0
nan nan -0 -0 -0 -0 -0 -0 -0 -0 -0 -0 -0 -0 -0 nan -0 -0 nan nan nan nan nan nan nan nan nan nan nan nan nan nan nan nan nan nan nan nan -0 -0 -0 -0 nan nan nan nan nan nan nan nan nan nan nan nan nan nan nan nan nan nan nan -0 -0 -0 -0 -0 -0 -0 -0 -0 -0 -0 -0 -0 -0 -0 -0 -0 -0 -0 -0 -0 -0 -0 -0 -0
nan nan -0 -0 -0 -0 -0 -0 -0 -0 -0 nan nan nan nan nan nan nan nan nan nan nan nan nan nan nan nan nan nan nan nan nan nan nan nan nan nan nan nan nan nan nan nan nan nan nan nan nan nan nan nan nan nan nan nan nan nan nan nan nan nan nan nan -0 -0 -0 -0 -0 -0 -0 -0 -0 -0 -0 -0 -0 -0 -0 -0 -0 -0 -0 -0 -0 -0 -0
nan nan nan -0 -0 -0 -0 -0 nan nan nan nan nan nan nan nan nan nan nan nan nan nan nan nan nan nan nan nan nan nan nan nan nan nan nan nan nan nan nan nan nan nan nan nan nan nan nan nan nan nan nan nan nan nan nan nan nan nan nan nan nan nan nan nan nan -0 -0 -0 -0 -0 -0 -0 -0 -0 -0 -0 -0 -0 -0 -0 -0 -0 -0 -0 -0 -0
nan nan nan -0 -0 -0 -0 nan nan nan nan nan nan nan nan nan nan nan nan nan nan nan nan nan nan nan nan nan nan nan nan nan nan nan nan nan nan nan nan nan nan nan nan nan nan nan nan nan nan nan nan nan nan nan nan nan nan nan nan nan nan nan nan nan nan nan -0 -0 -0 -0 -0 -0 -0 -0 -0 -0 -0 -0 -0 -0 -0 -0 -0 -0 -0 -0
nan nan nan nan nan nan nan nan nan nan nan nan nan nan nan nan nan nan nan nan nan nan nan nan nan nan nan nan nan nan nan nan nan nan nan nan nan nan nan nan nan nan nan nan nan nan nan nan nan nan nan nan nan nan nan nan nan nan nan nan nan nan nan nan nan nan nan -0 -0 -0 -0 -0 -0 -0 -0 -0 -0 -0 -0 -0 -0 -0 -0 -0 -0 -0
nan nan nan nan nan nan nan nan nan nan nan nan nan nan nan nan nan nan nan nan nan nan nan nan nan nan nan nan nan nan nan nan nan nan nan nan nan nan nan nan nan nan nan nan nan nan nan nan nan nan nan nan nan nan nan nan nan nan nan nan nan nan nan nan nan nan nan -0 -0 -0 -0 -0 -0 -0 -0 -0 -0 -0 -0 -0 -0 -0 -0 -0 -0 -0
nan nan nan nan nan nan nan nan nan nan nan nan nan nan nan nan nan nan nan nan nan nan nan nan nan nan nan nan nan nan nan nan nan nan nan nan nan nan nan nan nan nan nan nan nan nan nan nan nan nan nan nan nan nan nan nan nan nan nan nan nan nan nan nan nan nan nan -0 -0 -0 -0 -0 -0 -0 -0 -0 -0 -0 -0 -0 -0 -0 -0 -0 -0 -0
nan nan nan nan nan nan nan nan nan nan nan nan nan nan nan nan nan nan nan nan nan nan nan nan nan nan nan nan nan nan nan nan nan nan nan nan nan nan nan nan nan nan nan nan nan nan nan nan nan nan nan nan nan nan nan nan nan nan nan nan nan nan nan nan nan nan nan nan -0 -0 -0 -0 -0 -0 -0 -0 -0 -0 -0 -0 -0 -0 -0 -0 -0 -0
nan nan nan nan nan nan nan nan nan nan nan nan nan nan nan nan nan nan nan nan nan nan nan nan nan nan nan nan nan nan nan nan nan nan nan nan nan nan nan nan nan nan nan nan nan nan nan nan nan nan nan nan nan nan nan nan nan nan nan nan nan nan nan nan nan nan nan -0 -0 -0 -0 -0 -0 -0 -0 -0 -0 -0 -0 -0 -0 -0 -0 -0 -0 -0
nan nan nan nan nan nan nan nan nan nan nan nan nan nan nan nan nan nan nan nan nan nan nan nan nan nan nan nan nan nan nan nan nan nan nan nan nan nan nan nan nan nan nan nan nan nan nan nan nan nan nan nan nan nan nan nan nan nan nan nan nan nan nan -0 -0 -0 -0 -0 -0 -0 -0 -0 -0 -0 -0 -0 -0 -0 -0 -0 -0 -0 -0 -0 -0 -0
nan nan nan nan nan nan nan nan nan nan nan nan nan nan nan nan nan nan nan nan nan nan nan nan nan nan nan nan nan nan nan nan nan nan nan nan nan nan nan nan nan nan nan nan nan nan nan nan nan nan nan nan nan nan nan nan nan nan nan nan nan -0 -0 -0 -0 -0 -0 -0 -0 -0 -0 -0 -0 -0 -0 -0 -0 -0 -0 -0 -0 -0 -0 -0 -0 -0
nan nan nan nan nan nan nan nan nan nan nan nan nan nan nan nan nan nan nan nan nan nan nan nan nan nan nan nan nan nan nan nan nan nan nan nan nan nan nan nan nan nan nan nan nan nan nan nan nan nan nan nan nan nan nan nan nan nan nan -0 -0 -0 -0 -0 -0 -0 -0 -0 -0 -0 -0 -0 -0 -0 -0 -0 -0 -0 -0 -0 -0 -0 -0 -0 -0 -0
nan nan nan nan nan nan nan nan nan nan nan nan nan nan nan nan nan nan nan nan nan nan nan nan nan nan nan nan nan nan nan nan nan nan nan nan nan nan nan nan nan nan nan nan nan nan nan nan nan nan nan nan nan nan nan nan nan nan -0 -0 -0 -0 -0 -0 -0 -0 -0 -0 -0 -0 -0 -0 -0 -0 -0 -0 -0 -0 -0 -0 -0 -0 -0 -0 -0 -0
nan nan nan nan nan nan nan nan nan nan nan nan nan nan nan nan nan nan nan nan nan nan nan nan nan nan nan nan nan nan nan nan nan nan nan nan nan nan nan nan nan nan nan nan nan nan nan nan nan nan nan nan nan nan nan nan nan nan -0 -0 -0 -0 -0 -0 -0 -0 -0 -0 -0 -0 -0 -0 -0 -0 -0 -0 -0 -0 -0 -0 -0 -0 -0 -0 -0 -0
nan nan nan nan nan nan nan nan nan nan nan nan nan nan nan nan nan nan nan nan nan nan nan nan nan nan nan nan nan nan nan nan nan nan nan nan nan nan nan nan nan nan nan nan nan nan nan nan nan nan nan nan nan nan nan nan nan -0 -0 -0 -0 -0 -0 -0 -0 -0 -0 -0 -0 -0 -0 -0 -0 -0 -0 -0 -0 -0 -0 -0 -0 -0 -0 -0 -0 -0
nan nan nan nan nan nan nan nan nan nan nan nan nan nan nan nan nan nan nan nan nan nan nan nan nan nan nan nan nan nan nan nan nan nan nan nan nan nan nan nan nan nan nan nan nan nan nan nan nan nan nan nan nan nan nan nan nan -0 -0 -0 -0 -0 -0 -0 -0 -0 -0 -0 -0 -0 -0 -0 -0 -0 -0 -0 -0 -0 -0 -0 -0 -0 -0 -0 -0 -0
nan nan nan nan nan nan nan nan nan nan nan nan nan nan nan nan nan nan nan nan nan nan nan nan nan nan nan nan nan nan nan nan nan nan nan nan nan nan nan nan nan nan nan nan nan nan nan nan nan nan nan nan nan nan nan nan nan -0 -0 -0 -0 -0 -0 -0 -0 -0 -0 -0 -0 -0 -0 -0 -0 -0 -0 -0 -0 -0 -0 -0 -0 -0 -0 -0 -0 -0
nan nan nan nan nan nan nan nan nan nan nan nan nan nan nan nan nan nan nan nan nan nan nan nan nan nan nan nan nan nan nan nan nan nan nan nan nan nan nan nan nan nan nan nan nan nan nan nan nan nan nan nan nan nan nan nan nan nan -0 -0 -0 -0 -0 -0 -0 -0 -0 -0 -0 -0 -0 -0 -0 -0 -0 -0 -0 -0 -0 -0 -0 -0 -0 -0 -0 -0
nan nan nan nan nan nan nan nan nan nan nan nan nan nan nan nan nan nan nan nan nan nan nan nan nan nan nan nan nan nan nan nan nan nan nan nan nan nan nan nan nan nan nan nan nan nan nan nan nan nan nan nan nan nan nan nan nan nan -0 -0 -0 -0 -0 -0 -0 -0 -0 -0 -0 -0 -0 -0 -0 -0 -0 -0 -0 -0 -0 -0 -0 -0 -0 -0 -0 -0
nan nan nan nan nan nan nan nan nan nan nan nan nan nan nan nan nan nan nan nan nan nan nan nan nan nan nan nan nan nan nan nan nan nan nan nan nan nan nan nan nan nan nan nan nan nan nan nan nan nan nan nan nan nan nan nan nan nan -0 -0 -0 -0 -0 -0 -0 -0 -0 -0 -0 -0 -0 -0 -0 -0 -0 -0 -0 -0 -0 -0 -0 -0 -0 -0 -0 -0
nan nan nan nan nan nan nan nan nan nan nan nan nan nan nan nan nan nan -12 nan nan nan nan nan nan nan nan nan nan nan nan nan nan nan nan nan nan nan nan nan nan nan nan nan nan nan nan nan nan nan nan nan nan nan nan nan nan nan nan -0 -0 -0 -0 -0 -0 -0 -0 -0 -0 -0 -0 -0 -0 -0 -0 -0 -0 -0 -0 -0 -0 -0 -0 -0 -0 -0
nan nan nan nan nan nan nan nan -0 -0 nan nan nan nan -7 -0 -0 -0 -7 nan nan nan nan nan nan nan nan nan nan nan nan nan nan nan nan nan nan nan nan nan nan nan nan nan nan nan nan nan nan nan nan nan nan nan nan nan nan nan nan nan nan nan nan nan nan nan -0 -0 -0 -0 -0 -0 -0 -0 -0 -0 -0 -0 -0 -0 -0 -0 -0 -0 -0 -0
nan nan nan nan nan nan nan nan nan nan -0 -0 -1 -1 -0 -1 -0 -0 -0 -1 -1 nan nan nan nan nan nan nan nan nan nan nan nan nan nan nan nan nan nan nan nan nan nan nan nan nan nan nan nan nan nan nan nan nan nan nan nan nan nan nan nan nan nan nan nan nan nan nan -0 -0 -0 -0 -0 -0 -0 -0 -0 -0 -0 -0 -0 -0 -0 -0 -0 -0
nan nan nan nan nan nan nan nan -0 -0 -0 -0 -0 -0 -0 nan nan nan nan nan nan nan nan nan nan nan nan nan nan nan nan nan nan nan nan nan nan nan nan nan nan nan nan nan nan nan nan nan nan nan nan nan nan nan nan nan nan nan nan nan nan nan nan nan nan nan nan nan -0 -0 -0 -0 -0 -0 -0 -0 -0 -0 -0 -0 -0 -0 -0 -0 -0 -14
nan nan nan nan nan nan nan -0 -0 -0 -0 -0 -0 -0 -2 nan nan nan nan nan nan nan nan nan nan nan nan nan nan nan nan nan nan nan nan nan nan nan nan nan nan nan nan nan nan nan nan nan nan nan nan nan nan nan nan nan nan nan nan nan nan -0 -0 -0 -0 nan nan nan nan nan -0 -0 -0 -0 -0 -0 -0 -0 -0 -0 -0 -0 -0 -10 -10 nan
nan nan -2 -0 -0 -1 -2 -3 -0 -0 -0 -0 -0 -0 nan nan nan nan nan nan nan nan nan nan nan nan nan nan nan nan nan nan nan nan nan nan nan nan nan nan nan nan nan nan nan nan nan nan nan nan nan nan nan nan nan nan nan nan nan nan nan nan nan nan nan nan nan nan nan nan -0 -0 -0 -0 -0 -0 -0 -0 -0 -0 -0 -0 nan nan nan nan
nan nan -6 -4 -4 -6 nan nan nan nan -0 -0 -0 -0 nan nan nan nan nan nan nan nan nan nan nan nan nan nan nan nan nan nan nan nan nan nan nan nan nan nan nan nan nan nan nan nan nan nan nan nan nan nan nan nan nan nan nan nan nan nan nan nan nan nan nan nan nan nan nan nan -0 -0 -0 -0 -0 -0 -0 -0 -0 -0 -0 -1 nan nan nan nan
nan nan nan nan nan nan nan nan nan nan nan nan nan nan nan nan nan nan nan nan nan nan nan nan nan nan nan nan nan nan nan nan nan nan nan nan nan nan nan nan nan nan nan nan nan nan nan nan nan nan nan nan nan nan nan nan nan nan nan nan nan nan nan nan nan nan nan nan -0 -0 -0 -0 -0 -0 -0 -0 -0 -0 -0 -0 -0 -0 nan nan nan nan
nan nan nan nan nan nan nan nan nan nan nan nan nan nan nan nan nan nan nan nan nan nan nan nan nan nan nan nan nan nan nan nan nan nan nan nan nan nan nan nan nan nan nan nan nan nan nan nan nan nan nan nan nan nan nan nan nan nan nan nan nan nan nan nan nan nan nan nan nan nan -0 -0 -0 -0 -0 -0 -0 -0 -0 -0 -0 -0 -1 nan nan nan
nan nan nan nan nan nan nan nan nan nan nan nan nan nan nan nan nan nan nan nan nan nan nan nan nan nan nan nan nan nan nan nan nan nan nan nan nan nan nan nan nan nan nan nan nan nan nan nan nan nan nan nan nan nan nan nan nan nan nan nan nan nan nan nan nan nan nan nan nan nan nan nan -0 -0 -0 -0 -0 -0 -0 -0 -0 -0 -0 nan nan nan
nan nan nan nan nan nan nan nan nan nan nan nan nan nan nan nan nan nan nan nan nan nan nan nan nan nan nan nan nan nan nan nan nan nan nan nan nan nan nan nan nan nan nan nan nan nan nan nan nan nan nan nan nan nan nan nan nan nan nan nan nan nan nan nan nan nan nan nan nan nan nan nan nan nan nan -0 -0 -0 -0 -0 -0 -0 -0 -0 -0 -4
nan nan nan nan nan nan nan nan nan nan nan nan nan nan nan nan nan nan nan nan nan nan nan nan nan nan nan nan nan nan nan nan nan nan nan nan nan nan nan nan nan nan nan nan nan nan nan nan nan nan nan nan nan nan nan nan nan nan nan nan nan nan nan nan nan nan nan nan nan nan nan nan nan nan nan -0 -0 -0 -0 -0 -0 -0 -0 -0 -0 -0
nan nan nan nan nan nan nan nan nan nan nan nan nan nan nan nan nan nan nan nan nan nan nan nan nan nan nan nan nan nan nan nan nan nan nan nan nan nan nan nan nan nan nan nan nan nan nan nan nan nan nan nan nan nan nan nan nan nan nan nan nan nan nan nan nan nan nan nan nan nan nan nan nan nan nan -0 -0 -0 -0 -0 -0 -0 -0 -0 -0 -0
nan nan nan nan nan nan nan nan nan nan nan nan nan nan nan nan nan nan nan nan nan nan nan nan nan nan nan nan nan nan nan nan nan nan nan nan nan nan nan nan nan nan nan nan nan nan nan nan nan nan nan nan nan nan nan nan nan nan nan nan nan nan nan nan nan nan nan nan -17 -17 nan nan nan nan nan nan nan nan nan nan nan -3 -0 -0 -0 -0
nan nan nan nan nan nan nan nan nan nan nan nan nan nan nan nan nan nan nan nan nan nan nan nan nan nan nan nan nan nan nan nan nan nan nan nan nan nan nan nan nan nan nan nan nan nan nan nan nan nan nan nan nan nan nan nan nan nan nan nan nan nan nan nan nan nan nan nan nan nan nan nan nan nan nan nan nan nan nan nan nan nan nan nan nan -7
nan nan nan nan nan nan nan nan nan nan nan nan nan nan nan nan nan nan nan nan nan nan nan nan nan nan nan nan nan nan nan nan nan nan nan nan nan nan nan nan nan nan nan nan nan nan nan nan nan nan -2 nan nan nan nan nan nan nan nan nan nan nan nan nan nan nan nan nan nan nan nan nan nan nan nan nan nan nan nan nan nan nan nan nan nan nan
nan nan nan nan nan nan nan nan nan nan nan nan nan nan nan nan nan nan nan nan nan nan nan nan nan nan nan nan nan nan nan nan nan nan nan nan nan nan nan nan nan nan nan nan nan nan -6 nan nan -3 nan nan -2 -2 nan nan nan -0 -0 nan nan nan nan nan nan nan nan nan nan nan nan nan nan nan nan nan nan nan nan nan nan nan nan nan nan nan
nan nan nan nan nan nan nan nan nan nan nan nan nan nan nan nan nan nan nan nan nan nan nan nan nan nan nan nan nan nan nan nan nan nan nan nan nan nan nan nan nan nan nan nan nan nan -4 nan nan nan nan nan nan nan nan nan nan -2 -0 nan nan -5 nan nan nan nan nan nan nan nan nan nan nan nan nan nan nan nan nan nan nan nan nan nan nan nan
nan nan nan nan nan nan nan nan nan nan nan nan nan nan nan nan nan nan nan nan nan nan nan nan nan nan nan nan nan nan nan nan nan nan nan nan nan nan nan nan nan nan nan nan nan nan nan -2 -2 -4 nan -5 nan nan nan -4 -4 nan -5 -3 -3 nan nan nan nan nan nan nan nan nan nan nan nan nan nan nan nan nan nan nan nan -12 nan nan nan nan
nan nan nan nan nan nan nan nan nan nan nan nan nan nan nan nan nan nan nan nan nan nan nan nan nan nan nan nan nan nan nan nan nan nan nan nan nan nan nan nan nan nan nan nan nan -2 nan -3 -3 -5 -6 -6 nan nan nan nan nan nan nan -6 -6 nan nan nan nan nan nan nan nan nan nan nan nan nan nan nan nan nan nan nan nan nan nan nan nan nan
nan nan nan nan nan nan nan nan nan nan nan nan nan nan nan nan nan nan nan nan nan nan nan nan nan nan nan nan nan nan nan nan nan nan nan nan nan nan nan nan nan nan nan nan nan nan nan nan nan -5 nan nan -5 -5 nan nan nan nan nan -4 -4 -6 nan nan nan nan nan nan nan nan nan nan nan nan nan nan nan nan nan nan nan nan nan nan nan nan
nan nan nan nan nan nan nan nan nan nan nan nan nan nan nan nan nan nan nan nan nan nan nan nan nan nan nan nan nan nan nan nan nan nan nan nan nan nan nan nan nan nan nan nan nan nan nan nan nan -5 -5 -5 -5 -5 -6 nan nan nan nan nan nan nan nan nan nan nan nan nan nan nan nan nan nan nan nan nan nan nan nan nan nan nan nan nan nan nan
nan nan nan nan nan nan nan nan nan nan nan nan nan nan nan nan nan nan nan nan nan nan nan nan nan nan nan nan nan nan nan nan nan nan nan nan nan nan nan nan nan nan nan nan nan nan -8 nan nan -7 -4 -3 nan nan nan nan nan nan nan nan nan -8 -8 nan nan nan nan nan nan nan nan nan nan nan nan nan nan nan nan nan nan nan nan nan nan nan
nan nan nan nan nan nan nan nan nan nan nan nan nan nan nan nan nan nan nan nan nan nan nan nan nan nan nan nan nan nan nan nan nan nan nan nan nan nan nan nan nan nan -7 -4 -4 -4 -9 -20 -20 -16 -7 nan nan nan nan nan nan nan nan nan nan nan nan nan nan nan nan nan nan nan nan nan nan nan nan nan nan nan nan nan nan nan nan nan nan nan
nan nan nan nan nan nan nan nan nan nan nan nan nan nan nan nan nan nan nan nan nan nan nan nan nan nan nan nan nan nan nan nan nan nan nan nan nan nan -12 -12 -12 -9 -7 -6 -6 -6 -9 -18 -18 -11 -8 nan nan nan nan nan nan nan nan nan nan nan nan nan nan nan nan nan nan nan nan nan nan nan nan nan nan nan nan nan nan nan nan nan nan nan
nan nan nan nan nan nan nan nan nan nan nan nan nan nan nan nan nan nan nan nan nan nan nan nan nan nan nan nan nan nan nan nan nan nan nan nan nan nan nan -13 -13 -9 -8 -10 -10 -8 -11 -11 -11 -6 -1 -3 nan nan nan nan nan nan nan nan nan nan nan nan nan nan nan nan nan nan nan nan nan nan -13 -5 nan nan nan nan nan nan nan nan nan nan
nan nan nan nan nan nan nan nan nan nan nan nan nan nan nan nan nan nan nan nan nan nan nan nan nan nan nan nan nan nan nan nan nan nan nan nan nan nan nan nan nan nan -5 nan nan -5 -5 nan nan nan -3 -0 nan nan nan nan nan nan nan nan nan nan nan nan nan nan nan nan nan nan nan nan -20 -20 -13 -7 -6 -6 nan nan nan nan nan nan nan nan
Wind_Speed
2 2 1 1 1 1 1 1 1 1 1 1 1 1 1 0 0 0 1 1 1 1 1 1 1 2 4 6 7 7 6 6 6 6 6 6 6 5 5 4 4 3 3 3 4 4 4 4 4 4 4 4 4 5 5 6 6 6 7 7 7 7 8 8 8 8 8 8 8 7 6 6 5 5 4 4 4 4 4 4 4 4 5 5 5 5
2 2 1 1 1 1 1 2 2 2 1 1 1 1 1 1 1 1 1 2 2 2 2 2 2 2 2 5 6 7 7 6 6 6 6 6 6 5 4 4 3 3 3 3 3 3 3 3 4 4 4 5 5 6 6 6 7 7 7 7 8 8 8 8 9 9 9 9 8 7 6 5 4 3 3 3 3 4 4 4 4 5 5 5 6 6
2 2 2 1 0 1 1 2 2 2 2 2 1 1 2 2 2 2 2 2 2 3 3 2 2 2 2 4 6 7 7 6 6 6 6 5 5 4 4 3 3 3 3 3 3 3 4 4 4 5 5 5 6 6 7 7 7 7 8 8 8 8 9 9 9 9 9 9 8 8 7 5 4 4 4 4 4 5 5 5 5 6 6 6 7 7
2 2 2 1 1 1 1 1 1 1 1 1 1 1 1 1 1 1 2 2 2 2 2 2 2 1 1 3 5 6 6 5 5 5 5 4 4 4 4 3 3 3 3 3 3 4 4 4 5 5 5 6 6 6 7 7 8 8 8 8 9 9 9 9 9 9 9 9 8 8 7 6 5 5 5 5 5 5 6 6 6 7 7 7 7 8
2 2 2 1 1 1 1 1 0 0 1 1 1 1 1 1 1 1 1 1 1 1 1 1 1 1 1 3 4 4 4 4 3 3 3 3 3 3 3 3 3 3 3 3 4 4 4 4 5 5 5 6 6 7 7 8 8 8 9 9 9 9 9 9 9 9 9 9 8 8 7 7 6 6 6 6 6 6 6 7 7 7 8 8 8 9
2 2 1 1 1 1 1 0 1 0 0 1 1 1 1 1 1 1 1 0 0 0 0 0 0 1 2 3 3 3 2 2 1 1 1 1 2 2 3 3 3 3 3 3 4 4 4 4 4 5 5 6 6 7 7 8 8 9 9 9 9 10 10 10 10 9 9 9 8 8 7 7 7 7 7 7 7 7 7 7 8 8 8 9 9 9
2 2 2 2 2 1 1 0 1 1 0 1 1 1 1 1 1 1 1 1 0 0 0 0 0 1 2 3 2 2 2 2 2 2 2 2 1 1 2 2 2 3 3 3 3 3 4 4 4 5 5 6 7 7 8 8 8 9 9 9 10 10 10 10 10 10 10 9 9 8 8 7 7 7 7 7 7 7 7 8 8 9 9 9 9 10
2 2 2 2 2 2 1 1 0 0 1 1 1 1 2 2 1 1 1 1 1 1 1 1 0 1 2 2 2 1 1 1 1 2 2 2 2 2 1 1 2 2 2 2 3 3 4 4 5 5 6 6 7 7 8 8 8 9 9 9 10 10 10 10 10 10 10 10 9 9 8 8 8 7 7 7 7 7 8 8 9 9 9 10 10 10
2 2 2 2 2 2 2 1 1 0 0 1 1 1 0 1 1 2 2 1 1 1 1 1 1 1 1 2 2 2 2 2 2 1 1 1 1 1 1 1 1 1 2 3 3 4 5 5 6 6 7 7 8 8 8 8 8 9 9 9 9 10 10 10 10 10 10 10 10 10 9 9 8 8 8 8 8 8 8 9 9 9 10 10 10 10
2 2 1 1 1 1 1 1 1 1 0 0 1 1 1 1 1 0 1 2 2 1 1 1 1 1 1 1 1 2 2 2 2 2 2 2 2 2 2 2 2 2 3 4 4 5 6 6 7 7 8 8 8 8 9 9 9 9 9 9 9 10 10 10 10 10 10 10 10 10 10 10 10 9 9 9 9 9 9 9 9 10 10 10 10 10
1 1 1 1 1 1 0 1 1 1 0 1 0 1 1 2 2 1 1 1 1 1 1 1 1 1 1 1 1 1 1 1 1 0 0 1 0 1 1 2 2 3 4 5 5 6 7 7 8 8 8 8 8 9 8 8 8 9 9 9 9 9 10 10 10 10 10 10 11 11 11 11 11 11 10 10 10 10 10 10 10 10 10 10 10 10
1 1 1 1 1 1 1 1 1 0 1 1 1 1 2 2 2 2 2 1 1 1 1 1 0 0 0 1 1 1 1 2 2 1 1 1 2 2 2 2 3 3 4 5 6 6 7 8 8 8 8 8 8 8 8 8 8 8 8 9 9 9 9 9 9 10 10 10 10 10 11 11 11 11 11 11 11 11 11 10 10 10 10 10 10 10
1 1 1 1 1 1 1 1 1 1 1 0 0 1 2 1 1 1 2 1 1 1 1 1 1 1 1 0 0 1 1 1 2 2 2 1 1 1 1 1 2 2 3 3 4 4 6 7 7 7 7 7 7 7 7 7 7 7 8 8 8 9 9 9 9 9 9 9 10 10 10 10 11 11 11 11 11 11 11 11 11 10 10 10 10 10
1 1 1 1 1 1 1 0 1 1 1 1 2 2 1 1 1 1 2 1 1 1 1 2 2 1 2 1 1 1 1 1 2 2 2 2 1 1 1 1 1 2 2 2 3 3 5 5 5 5 6 6 6 6 5 5 6 7 7 8 8 8 8 8 8 8 8 9 9 9 9 10 10 10 11 11 11 11 11 11 11 10 10 10 10 9
1 1 1 1 1 1 1 0 0 1 2 2 1 1 1 1 1 1 1 2 1 1 1 2 2 1 1 2 1 1 1 1 1 2 2 2 2 2 1 1 1 2 2 2 2 3 4 4 3 3 4 4 4 3 3 4 6 7 7 8 8 8 8 8 8 8 8 8 8 8 8 9 9 9 10 10 10 10 10 10 10 10 10 9 9 9
1 1 1 1 1 1 1 1 1 1 1 1 1 1 1 1 1 1 2 2 2 2 2 2 2 1 0 2 1 1 1 1 1 2 2 2 2 2 1 1 1 2 2 2 2 3 3 3 3 3 3 3 3 3 3 4 6 7 8 8 8 8 7 8 8 8 8 8 8 8 8 8 9 9 9 9 9 10 10 10 10 10 9 9 9 9
0 0 0 1 1 1 1 1 1 1 1 1 1 1 1 1 2 2 2 2 2 2 1 2 2 1 1 1 2 1 1 1 1 2 2 2 2 2 1 1 1 1 2 2 2 2 2 2 2 2 2 3 3 4 4 6 7 7 8 8 8 8 8 8 8 8 8 8 8 8 9 9 9 9 9 9 9 9 9 10 9 9 9 9 9 9
0 0 0 0 1 1 1 1 1 1 0 0 0 0 0 1 1 1 1 1 1 1 1 1 1 1 2 1 1 2 2 1 1 2 2 2 2 2 1 1 1 1 2 2 2 2 2 2 2 2 3 4 5 5 6 7 7 8 8 8 8 8 8 8 9 9 9 9 9 9 9 9 9 9 9 9 9 9 9 10 10 9 9 9 9 9
1 0 0 0 0 1 1 1 1 1 0 0 1 0 0 0 0 0 1 1 1 1 1 1 1 1 2 2 1 1 2 1 1 2 2 2 2 2 1 1 1 1 2 2 2 2 2 2 3 4 5 6 6 7 7 8 8 8 8 9 9 9 9 9 9 9 9 10 10 10 10 10 10 10 10 10 10 10 10 10 10 10 10 9 9 9
1 0 0 1 0 0 1 1 1 1 1 1 1 1 1 1 1 1 1 1 1 1 1 1 2 2 2 2 2 1 1 1 1 1 2 2 2 2 2 1 1 1 2 2 2 2 2 2 3 4 6 6 7 7 7 8 8 8 8 9 9 9 9 9 9 10 10 10 10 10 10 10 10 10 10 10 10 10 10 10 10 10 10 10 10 10
1 1 1 1 1 0 0 1 2 2 3 2 2 1 1 1 1 1 1 1 1 1 1 1 2 2 2 2 2 2 2 2 2 1 1 2 2 2 1 1 1 1 2 2 2 2 2 2 2 3 5 6 7 7 7 7 7 8 8 8 8 9 9 9 9 10 10 10 10 11 11 11 11 11 11 11 11 11 11 11 11 11 11 11 10 10
1 1 2 1 1 1 1 2 3 3 3 2 1 1 1 1 1 1 2 2 2 2 2 2 2 2 2 3 3 3 2 2 1 1 1 2 2 2 1 0 1 1 2 2 2 2 2 2 2 3 5 7 7 7 6 6 7 7 7 8 8 8 8 8 8 9 9 9 9 10 10 10 11 11 11 11 11 11 11 11 11 11 12 11 11 11
1 1 2 2 2 2 2 2 3 3 3 1 1 1 2 2 2 2 2 2 2 2 2 3 3 3 3 4 4 3 3 2 1 1 1 2 2 2 1 0 1 1 2 2 2 2 2 2 3 3 5 6 6 6 5 5 6 6 7 7 7 7 6 7 7 7 7 8 8 8 9 9 9 10 10 11 11 11 11 11 12 12 12 11 11 11
1 2 2 2 2 2 2 2 2 2 2 1 1 1 1 1 1 2 2 2 2 3 3 3 3 3 3 4 4 3 2 2 2 1 1 2 2 2 2 1 2 2 2 2 2 2 3 3 3 3 4 5 4 3 3 4 5 6 6 6 6 6 6 6 6 6 7 7 7 7 8 8 8 8 8 9 9 10 10 10 10 10 10 10 9 9
2 2 2 2 2 2 2 2 2 2 2 1 1 0 1 1 2 2 2 2 3 3 3 3 3 3 3 3 2 2 2 2 2 2 1 1 2 2 2 2 2 2 2 2 2 2 3 3 3 3 3 3 2 1 2 3 4 5 6 6 6 6 6 6 6 7 7 7 7 8 8 7 7 7 7 7 8 8 8 9 8 8 8 8 8 8
2 2 2 2 2 2 1 2 2 2 1 1 1 1 1 2 2 2 2 3 3 3 3 3 3 3 2 2 2 1 1 2 2 2 1 1 2 2 2 2 2 2 2 2 2 3 3 3 3 3 3 2 1 2 2 3 4 5 6 6 6 7 7 7 7 7 8 8 8 8 8 8 8 8 7 7 7 8 8 8 8 8 8 8 8 9
2 2 1 1 1 1 1 0 1 1 2 3 3 3 2 2 3 3 3 3 3 3 3 2 2 2 2 2 2 1 0 2 2 2 2 1 1 2 2 2 2 2 2 2 3 3 4 4 3 3 2 2 1 2 3 4 5 6 7 7 8 8 8 8 8 8 8 9 9 9 9 9 9 9 9 9 8 8 8 8 9 9 9 8 8 8
2 2 2 2 2 2 2 2 3 4 5 5 5 5 4 3 3 3 4 3 3 2 2 2 2 2 2 2 2 2 1 1 1 2 1 1 1 2 2 2 1 2 2 2 3 3 5 4 3 3 2 1 1 2 3 5 6 7 8 8 8 9 9 9 9 9 9 9 9 10 10 10 10 10 10 10 10 10 10 10 10 9 9 7 6 5
2 3 3 3 3 4 4 4 5 6 7 7 7 6 4 3 3 3 4 3 3 3 3 3 3 2 2 2 2 2 2 2 0 1 1 0 1 2 2 2 1 1 2 2 2 3 3 3 2 2 1 1 1 2 3 4 5 6 7 8 8 8 8 8 8 8 8 9 9 10 10 11 11 11 11 11 11 11 11 11 10 9 7 5 4 4
3 4 4 5 5 5 5 5 5 6 7 8 8 7 5 3 3 3 3 3 3 3 3 3 3 3 2 2 2 2 2 0 1 2 1 0 1 1 1 1 1 1 2 2 2 2 2 2 1 1 1 1 2 2 2 3 3 4 4 5 6 6 7 7 8 8 8 9 10 10 11 11 11 12 12 12 12 12 12 12 10 8 4 4 4 4
2 3 3 3 3 4 4 3 4 5 6 7 7 6 5 4 3 3 3 3 3 3 3 3 3 3 2 2 2 2 1 1 2 2 1 0 1 1 1 1 1 1 1 1 1 2 2 1 0 0 0 1 2 2 2 2 2 2 2 3 3 4 6 7 7 7 8 9 10 10 11 11 12 12 12 12 13 13 13 13 11 8 4 4 3 4
2 1 2 2 2 2 2 2 3 3 3 4 4 4 4 4 3 3 3 3 3 3 3 3 3 3 3 2 2 2 1 1 2 2 1 0 1 1 1 1 1 1 1 1 1 2 2 2 1 1 1 2 2 2 3 3 3 2 2 2 2 3 5 6 6 7 7 8 9 10 10 11 11 12 12 13 13 13 13 13 12 9 5 4 4 4
2 2 2 2 2 2 2 2 2 2 3 3 3 3 3 3 3 3 3 2 2 2 3 3 3 3 3 3 3 2 2 0 2 2 2 0 1 1 1 1 1 2 1 1 2 2 2 2 2 2 2 2 2 2 3 3 3 3 2 2 2 2 4 5 5 6 6 7 8 8 9 10 11 11 12 12 13 13 13 14 13 11 8 5 4 4
3 3 3 3 3 3 3 3 3 3 3 3 3 3 2 2 3 3 3 3 2 2 3 3 3 3 3 3 3 2 2 1 2 3 2 0 0 1 1 1 1 2 2 2 2 2 2 2 2 2 2 2 2 2 2 3 3 2 2 1 2 2 3 3 4 4 5 5 5 5 6 7 8 9 10 11 11 12 12 13 13 13 11 8 5 4
3 3 4 3 3 3 3 3 3 3 3 3 3 2 2 2 2 2 3 3 3 3 3 3 3 3 3 2 2 2 2 0 2 3 2 1 0 1 1 1 2 2 2 2 2 2 2 2 3 3 3 3 2 2 2 2 2 2 1 1 1 2 2 2 3 3 4 4 3 4 4 4 5 5 6 8 9 10 10 11 12 13 13 11 9 7
3 3 4 3 3 3 3 3 3 2 2 2 2 2 2 2 2 2 2 3 3 3 3 3 3 3 2 2 2 2 2 1 2 2 1 1 1 1 1 1 2 2 2 2 2 2 2 3 3 4 4 3 3 2 2 2 2 2 2 2 2 2 3 3 3 3 3 3 3 3 3 3 3 4 4 6 8 9 9 10 11 12 13 13 12 11
3 3 3 3 3 3 2 2 2 2 2 2 2 2 2 2 2 2 2 2 2 3 3 3 3 3 4 3 3 3 3 2 2 2 2 2 1 1 1 2 2 2 2 2 2 3 3 3 4 4 3 3 3 2 2 2 2 2 3 3 3 3 3 3 3 3 3 4 4 3 3 3 3 4 4 7 7 8 8 9 10 11 12 13 13 14
3 3 3 3 2 2 2 2 2 2 2 2 2 1 2 2 2 2 2 2 2 2 3 3 3 4 5 5 5 4 4 4 4 3 3 2 2 2 2 2 2 2 2 2 3 3 3 3 4 3 3 3 3 3 3 3 3 3 3 3 3 3 3 3 3 3 3 4 4 4 4 4 4 4 4 5 5 4 5 5 6 8 10 11 12 14
3 3 3 3 2 2 2 2 2 1 1 1 2 2 2 2 2 3 2 2 3 3 3 3 3 3 4 5 5 6 5 5 4 4 3 2 2 2 2 3 3 3 3 3 3 3 3 3 4 3 3 3 3 3 3 3 3 3 3 3 3 3 3 3 3 3 3 3 4 4 4 4 4 3 3 3 3 3 3 3 4 5 6 5 7 9
3 2 3 3 2 2 2 2 1 1 1 2 2 2 2 2 2 3 3 3 3 3 3 3 3 3 4 4 5 6 6 5 5 5 4 3 3 3 3 3 3 3 3 3 3 3 4 4 4 4 4 4 4 4 4 3 4 4 5 4 3 3 3 3 3 3 3 3 3 4 4 3 3 3 3 3 3 3 3 3 3 3 4 3 3 4
3 3 3 2 2 2 2 1 1 1 2 2 2 2 2 2 2 2 3 3 3 3 3 3 3 4 4 4 5 6 6 6 6 6 5 5 5 4 4 4 4 4 4 4 4 4 4 4 5 5 4 4 5 5 5 5 5 6 6 5 4 4 4 4 4 3 3 3 3 4 4 4 4 4 3 3 3 3 3 3 3 3 3 3 2 2
4 3 3 2 2 1 1 1 2 2 2 2 2 2 2 2 2 2 2 2 2 2 2 2 3 3 3 4 4 5 6 6 6 6 6 6 6 5 4 4 4 4 4 4 4 4 4 5 5 5 5 4 4 5 5 5 5 6 5 5 5 5 5 5 4 3 3 3 3 3 4 4 3 3 3 3 3 3 3 3 4 4 4 3 3 3
3 3 2 2 2 2 2 2 2 2 2 2 3 3 3 2 2 3 3 2 2 2 2 2 2 2 3 3 3 3 4 5 6 6 6 6 6 6 5 5 5 4 4 4 4 4 5 5 5 5 4 4 4 5 6 5 5 5 5 5 5 5 3 3 2 2 3 3 3 3 3 3 3 3 4 4 3 3 3 4 5 6 5 4 3 4
3 3 2 2 2 2 2 2 2 2 3 3 3 3 3 3 3 3 3 2 2 2 2 2 2 2 3 3 3 3 3 3 4 5 5 6 6 6 6 5 5 5 5 4 4 4 4 4 5 5 4 4 5 5 6 5 5 5 5 5 5 5 4 3 3 3 3 3 3 3 3 3 3 4 3 4 3 3 3 3 3 4 5 4 4 4
3 2 2 2 2 2 2 2 3 3 3 3 3 3 3 3 3 3 3 2 2 2 2 2 2 2 2 3 3 3 3 2 3 3 4 6 8 8 7 6 5 5 5 5 5 4 4 4 4 4 4 4 5 5 6 6 6 6 6 6 6 6 5 5 4 4 4 4 3 3 4 3 3 3 3 3 3 3 3 3 4 4 4 4 4 4
2 2 2 2 2 2 3 3 3 3 3 3 3 3 3 3 3 3 3 3 2 2 2 2 2 2 3 3 3 3 3 2 2 2 3 4 5 6 6 6 6 5 5 5 5 5 5 5 4 4 4 4 5 5 6 6 6 6 6 6 6 5 5 5 4 4 4 4 4 4 4 3 3 3 4 4 4 4 4 4 4 4 4 4 4 5
3 2 2 2 2 2 3 3 2 2 3 3 3 3 3 3 3 3 3 3 2 2 2 2 2 3 4 3 3 3 3 3 2 2 2 3 4 4 5 5 6 6 6 6 6 6 6 5 5 4 4 5 5 6 6 6 6 6 6 5 5 5 5 4 4 4 4 4 3 3 3 3 3 4 4 4 4 4 4 4 4 4 4 4 4 5
3 3 3 2 2 2 2 2 2 3 3 3 3 3 3 3 3 3 2 2 2 2 2 2 3 4 5 4 4 4 3 4 3 2 2 2 2 3 4 4 5 5 6 6 7 7 6 6 6 6 6 6 6 6 6 6 6 6 6 5 5 5 5 4 4 3 3 3 3 3 3 3 3 4 4 4 5 4 4 4 4 4 4 4 5 5
3 3 3 3 3 3 3 3 3 3 3 3 3 3 2 3 4 4 3 2 2 2 3 3 4 4 5 5 5 5 5 4 3 2 2 2 2 2 3 3 3 4 4 5 5 6 6 6 7 8 8 7 7 7 7 6 6 6 5 5 5 5 5 4 4 3 3 3 3 3 3 3 3 4 4 5 6 6 5 5 5 5 4 4 5 5
3 3 3 3 3 3 3 3 3 3 3 3 3 3 2 2 3 3 3 2 2 3 3 4 4 5 5 5 5 5 5 4 3 2 2 2 2 2 2 2 3 3 3 3 3 3 4 4 6 8 10 11 10 9 7 7 6 6 5 5 5 5 5 4 4 3 4 4 4 4 4 4 4 4 4 5 6 7 6 5 5 5 4 4 5 5
4 4 4 3 3 3 3 3 3 3 3 3 3 3 2 2 2 2 2 3 3 3 3 4 5 5 5 5 5 5 5 3 3 2 2 2 3 3 3 3 2 2 2 2 2 3 3 3 4 5 8 12 14 13 8 7 6 5 5 5 4 4 4 4 4 4 4 4 4 3 3 4 4 4 4 4 5 6 6 6 5 5 4 4 4 5
Wind_Direction
97 96 85 75 98 106 92 75 77 92 115 99 84 75 82 108 209 342 347 339 337 349 49 62 59 65 78 68 59 50 43 41 40 40 38 39 40 43 46 49 48 45 43 43 44 45 48 48 48 46 42 35 27 20 13 7 1 356 351 347 342 338 334 332 330 329 328 327 328 332 338 346 354 359 360 355 351 345 339 331 327 324 320 319 318 317
116 115 102 86 112 122 104 66 49 40 44 46 37 22 1 351 356 2 355 351 349 354 11 26 26 28 51 67 59 48 43 40 39 39 38 39 40 42 45 47 46 45 45 48 51 55 55 53 48 41 35 28 22 15 10 4 359 355 351 347 343 340 336 334 332 331 329 328 328 330 334 339 344 345 340 333 326 320 316 311 311 312 311 313 314 314
136 131 115 100 97 100 90 66 51 37 32 37 27 7 350 356 4 6 353 350 354 1 10 13 13 19 34 64 58 48 43 39 37 38 37 37 39 41 44 45 46 47 51 54 58 57 55 48 40 33 27 21 15 10 4 359 355 352 348 345 342 340 338 337 335 333 332 331 330 330 330 331 331 327 320 314 311 310 309 310 311 313 313 314 313 313
127 123 122 130 115 81 63 53 51 55 59 60 42 352 341 11 24 17 353 347 350 357 5 3 8 20 35 64 62 55 45 40 37 37 35 34 35 37 40 43 47 51 54 56 56 53 48 40 31 24 18 12 6 2 357 352 349 346 343 342 340 338 337 336 335 334 334 332 331 330 329 327 323 318 312 309 308 308 308 310 311 312 312 312 311 309
110 113 126 135 118 92 62 27 357 164 134 149 167 174 150 105 91 71 348 339 340 344 344 348 9 43 62 70 69 65 56 48 43 39 35 31 30 31 34 39 46 51 53 52 49 44 38 29 22 15 8 2 357 352 348 345 342 340 338 336 334 333 333 332 331 330 329 328 328 328 326 324 321 317 314 312 310 309 309 310 310 311 310 310 308 307
111 115 130 125 117 106 94 342 290 262 158 178 176 165 139 130 136 150 172 188 227 284 307 336 32 70 79 79 84 88 92 92 92 83 63 47 36 32 32 38 43 47 46 42 38 32 24 15 8 1 355 350 346 342 340 338 336 334 332 330 328 327 325 324 323 322 321 320 320 319 319 318 317 315 314 312 311 310 309 309 309 308 308 307 306 304
127 135 149 140 131 128 137 198 258 269 234 213 185 165 144 148 155 158 153 146 133 101 57 41 53 71 84 91 102 120 139 160 170 173 163 147 115 74 48 42 40 38 33 26 19 11 3 355 349 343 339 337 335 333 331 330 329 328 326 324 322 319 317 315 314 312 311 310 309 308 307 307 307 307 307 307 307 307 307 307 306 306 305 305 303 301
145 157 167 160 152 146 148 167 215 266 292 276 237 191 166 166 163 153 133 101 63 36 23 33 53 74 78 83 89 93 79 153 178 177 167 157 143 120 88 62 40 23 11 1 352 344 338 332 328 325 324 323 323 322 322 321 321 320 318 316 314 312 310 308 306 304 303 301 300 299 297 296 295 295 295 296 298 300 301 301 301 301 301 300 299 296
152 160 166 153 143 140 141 150 158 175 312 304 306 303 237 170 161 155 147 121 85 45 15 8 14 40 56 52 45 33 20 9 1 1 17 37 57 65 66 39 8 346 337 328 322 318 314 311 309 309 309 310 311 311 312 312 311 310 309 307 305 304 303 301 300 298 297 296 294 293 291 289 287 286 286 286 288 291 293 295 295 296 296 295 293 290
140 137 131 107 96 100 123 130 130 129 229 297 330 354 359 352 342 176 161 135 118 92 47 16 6 6 22 25 25 23 14 1 359 7 15 22 18 14 8 343 327 317 305 302 298 296 294 294 294 295 297 299 300 302 303 303 302 301 300 298 297 297 296 296 295 294 293 291 290 289 288 286 284 283 282 282 283 285 286 288 289 290 290 288 286 284
115 110 109 108 102 100 97 97 100 113 200 220 183 81 39 11 351 333 309 113 112 103 83 54 16 348 339 347 359 4 353 330 312 286 137 147 93 337 306 292 288 287 284 283 281 281 281 282 283 285 289 291 294 296 298 297 297 295 294 292 292 292 292 291 291 290 289 288 287 286 285 284 283 282 281 281 281 282 283 284 284 284 283 281 279 278
116 120 129 130 129 125 116 102 110 156 220 219 184 128 84 38 3 338 327 347 24 39 24 358 307 243 250 313 341 346 337 316 306 292 249 206 206 217 237 255 263 268 274 275 275 275 275 276 278 281 285 289 291 293 295 294 294 292 291 289 289 288 287 287 287 286 285 284 283 283 282 282 281 281 281 280 280 280 280 280 280 279 277 275 274 274
137 149 155 148 134 129 128 142 160 181 210 263 44 63 69 45 6 333 314 322 346 9 352 315 283 222 165 122 19 345 327 313 308 305 297 270 245 233 245 263 274 279 283 283 283 282 279 280 282 284 287 289 291 292 293 294 294 292 290 288 287 285 284 283 283 282 282 280 279 278 278 277 277 277 277 277 277 277 277 276 275 274 272 271 271 271
149 158 163 150 135 126 133 170 166 128 75 40 34 33 37 23 339 308 294 301 331 355 331 296 281 245 155 121 85 3 331 313 308 304 300 295 295 297 300 290 291 295 299 296 293 291 291 293 292 291 289 289 290 294 302 302 299 297 294 291 287 285 283 282 281 281 279 278 277 276 274 274 273 273 272 273 273 272 272 271 270 269 268 268 268 270
148 160 160 148 137 129 128 114 79 74 71 57 43 22 346 318 315 316 313 321 333 337 316 296 287 274 146 112 91 13 358 327 316 312 308 306 308 310 305 289 287 291 299 297 295 295 298 299 296 291 289 290 301 318 331 317 307 301 298 293 289 287 285 284 284 283 282 281 280 279 277 276 274 273 272 270 269 269 267 266 266 265 265 266 267 269
131 156 155 148 140 127 108 61 59 70 82 78 56 10 330 337 350 353 341 336 334 331 320 316 307 302 125 106 90 39 10 350 333 321 312 304 300 299 300 294 293 295 301 298 296 296 298 293 289 285 285 296 311 322 321 307 299 296 294 292 290 289 288 288 288 287 288 287 286 285 284 282 281 279 276 274 272 270 267 265 264 263 263 263 264 266
72 136 161 158 141 124 106 79 54 53 71 84 75 37 359 3 1 354 342 335 330 326 324 325 322 316 305 124 116 99 39 7 339 318 305 296 290 289 295 294 292 292 296 292 290 288 288 287 287 289 290 299 302 301 296 290 288 287 287 287 287 287 287 286 287 288 288 288 287 287 285 285 285 284 282 281 279 276 273 269 266 264 261 260 260 262
73 314 261 184 134 114 108 110 99 83 68 97 98 94 76 49 15 343 328 327 325 325 328 324 319 308 299 303 120 117 104 35 338 312 298 290 285 281 268 229 248 270 281 281 281 281 281 284 288 291 291 289 287 284 282 280 280 281 281 281 282 282 281 282 283 283 284 284 284 283 283 282 282 282 283 283 282 281 278 274 270 266 262 259 258 259
154 207 286 324 78 97 112 127 131 131 121 47 30 28 47 91 93 289 295 313 320 323 324 314 303 293 288 296 330 74 97 52 341 310 294 289 287 283 273 243 246 262 275 278 280 281 281 282 281 279 277 276 276 276 277 278 279 280 279 279 278 277 276 277 277 278 278 279 279 279 278 278 277 276 276 277 278 278 277 275 272 269 265 263 261 260
143 146 25 15 36 91 131 124 100 73 51 34 18 357 343 350 329 300 290 305 306 300 293 283 278 275 275 282 298 333 26 13 339 305 291 290 288 287 282 274 275 279 282 281 282 281 280 273 271 269 270 271 273 275 278 282 284 284 283 281 278 276 274 273 273 273 273 274 274 274 274 273 272 271 271 271 271 271 272 272 271 270 268 266 265 264
101 100 71 33 11 6 104 90 78 65 53 36 12 344 339 343 334 328 334 329 311 288 270 263 264 269 281 287 298 315 342 339 322 305 297 294 288 282 274 269 277 282 282 281 279 278 276 271 267 267 271 274 277 280 284 288 291 291 288 284 280 276 273 271 270 269 269 268 269 269 269 268 268 267 266 266 265 266 266 267 268 267 267 265 264 264
34 61 64 40 14 7 43 72 77 75 68 50 9 343 356 357 348 342 341 333 320 306 292 286 286 292 297 294 293 297 306 298 292 291 296 291 286 281 272 239 256 272 276 280 284 287 286 282 277 275 277 279 281 284 289 293 295 295 291 286 281 277 273 270 269 269 268 268 268 267 265 264 263 262 262 261 260 260 261 261 262 262 262 262 261 261
26 45 62 48 31 23 33 56 72 80 82 67 33 18 23 7 348 335 331 323 312 303 298 295 294 292 287 280 275 269 256 238 229 243 274 279 283 285 297 285 269 272 275 286 297 302 301 293 285 281 280 282 283 286 290 295 296 294 291 287 284 282 281 280 280 280 279 277 275 272 270 267 264 262 261 259 258 257 257 257 258 258 259 260 260 260
30 37 54 54 46 36 31 50 66 75 76 60 45 40 36 344 311 304 305 300 295 291 287 284 280 275 267 261 256 247 217 182 173 188 238 265 278 287 306 311 299 287 284 295 305 308 304 294 286 280 278 280 282 283 285 289 291 291 290 291 291 292 294 294 294 294 293 290 288 286 283 279 275 271 267 264 262 260 258 258 258 259 261 262 262 263
33 34 44 56 58 51 35 47 57 64 67 62 60 63 227 253 266 278 283 282 277 272 268 269 270 271 269 267 262 241 154 145 157 184 230 264 280 289 299 305 300 295 294 304 308 307 298 290 285 280 276 272 261 243 254 271 279 284 287 289 292 295 298 298 297 297 296 294 294 292 290 290 287 283 280 275 270 266 263 262 262 263 264 265 265 264
38 38 42 60 68 69 50 54 63 77 111 167 217 237 250 265 278 283 279 271 265 261 260 263 269 276 283 287 284 268 130 141 161 189 222 259 281 288 292 298 299 300 300 305 305 300 293 288 286 283 279 272 247 227 238 255 266 274 278 281 284 287 290 291 292 292 291 290 288 286 285 284 282 281 280 277 272 268 265 262 262 262 262 263 263 263
70 66 67 84 99 110 127 191 219 224 230 242 256 272 288 295 293 285 277 271 267 266 268 272 278 283 285 282 280 274 189 162 172 188 204 240 272 282 287 298 306 309 304 301 298 293 288 284 281 277 274 277 273 259 254 258 262 266 269 272 276 278 281 284 285 286 285 284 282 279 277 275 274 273 272 270 267 264 261 259 258 259 259 260 261 261
132 140 149 157 160 171 197 225 238 246 250 257 267 278 289 290 284 277 272 273 275 276 275 274 277 280 284 282 286 291 297 247 194 173 170 213 260 274 283 295 305 310 307 303 296 288 280 271 263 257 256 267 285 284 271 267 264 264 266 269 271 274 277 280 281 282 283 281 280 277 275 272 270 268 266 265 263 261 259 257 257 258 258 258 257 256
172 176 182 187 190 196 208 225 238 246 252 257 263 268 271 269 265 265 267 274 277 277 272 269 269 270 275 278 285 288 284 270 213 113 117 183 256 269 277 289 305 319 326 312 301 286 269 252 239 230 235 266 283 281 276 271 267 265 267 272 275 277 280 281 282 282 282 281 279 277 275 272 269 266 264 263 261 260 258 257 257 257 258 258 257 256
189 192 199 202 204 207 215 226 239 247 253 258 261 262 261 256 253 255 262 267 268 267 266 265 264 265 269 277 279 275 262 241 91 87 101 174 258 272 284 301 327 347 354 329 312 299 284 257 217 172 159 267 273 271 269 269 268 269 274 280 285 288 288 287 285 283 281 279 278 276 274 271 269 267 265 263 261 260 259 257 257 257 256 256 256 257
211 211 217 217 218 219 224 233 243 251 257 260 261 260 256 250 247 249 253 255 256 256 258 259 260 262 262 266 269 268 258 99 96 102 118 190 258 278 300 314 329 346 357 334 318 310 306 298 293 104 82 289 284 280 278 280 281 282 286 291 295 295 294 292 289 286 282 279 277 275 273 271 269 267 265 263 262 260 259 258 257 255 255 253 255 257
285 277 274 271 264 257 251 250 251 253 257 259 258 256 252 249 247 246 247 247 248 248 250 253 255 256 255 250 253 261 275 110 119 128 135 208 266 286 309 315 316 318 321 298 289 290 296 300 316 330 328 309 300 295 295 294 292 289 289 290 291 294 297 298 295 291 288 284 281 278 276 272 269 267 265 263 261 260 259 257 256 254 251 250 253 255
306 302 295 288 280 272 261 254 248 246 246 248 249 249 248 247 246 245 244 244 244 244 243 247 248 250 252 248 248 255 273 219 129 127 131 175 273 292 310 307 303 300 298 277 264 259 266 279 292 302 304 299 296 295 296 294 290 287 287 291 295 299 302 304 302 298 296 292 290 288 284 278 274 270 266 263 261 259 258 256 255 252 250 249 250 254
293 287 281 276 269 263 256 249 243 242 240 241 241 240 238 238 239 238 237 237 238 239 239 241 243 247 250 252 251 252 262 245 106 104 115 130 278 285 293 289 286 285 284 274 266 262 263 272 282 291 295 295 294 293 291 287 285 285 289 296 299 298 300 301 298 295 296 296 295 293 289 284 279 275 268 264 261 259 256 255 253 251 249 247 247 250
280 276 272 268 263 258 253 247 243 241 240 239 237 234 230 229 228 227 226 227 230 232 236 239 243 247 252 257 258 257 261 307 81 84 83 58 306 288 283 273 272 274 277 276 276 276 278 281 288 295 300 301 299 292 281 278 280 288 300 297 290 283 283 288 291 293 295 295 293 289 286 284 281 278 272 267 264 260 257 255 253 251 249 248 247 247
273 271 268 264 260 256 252 250 249 250 250 243 237 229 226 226 225 222 220 221 226 231 236 241 247 253 259 264 265 267 273 317 31 53 46 17 326 296 279 273 273 277 280 279 280 282 285 289 293 296 297 297 295 292 285 291 306 321 324 313 303 297 295 299 300 300 298 294 290 287 283 282 281 280 279 274 271 267 263 259 256 254 252 250 249 248
274 271 268 263 260 257 256 256 257 258 259 256 248 235 229 230 229 228 223 219 225 235 244 249 253 256 257 261 264 269 279 300 319 333 337 342 331 304 279 278 280 281 279 279 281 284 288 290 292 292 290 286 286 292 303 321 329 331 323 319 315 312 309 306 301 295 289 285 283 282 281 281 282 283 284 281 279 275 269 264 260 256 254 252 251 250
274 272 270 267 263 260 259 259 259 261 265 266 264 259 250 248 247 245 240 227 225 233 245 252 257 259 258 261 264 268 274 282 291 301 315 323 318 298 276 276 277 277 274 275 278 282 284 286 288 289 286 283 287 297 310 320 322 319 313 312 310 306 300 295 289 283 280 282 284 285 285 283 282 280 281 280 279 277 271 267 262 259 256 255 253 252
270 271 272 273 273 272 269 266 268 272 277 278 280 280 276 271 267 264 259 245 235 231 235 245 253 260 261 263 264 264 265 266 270 275 283 282 273 265 263 266 268 269 270 270 271 272 273 274 277 281 286 290 295 299 306 309 309 308 306 304 299 291 284 283 283 284 288 290 292 292 290 285 279 274 271 270 269 268 266 266 262 259 257 256 256 255
274 275 277 279 281 283 285 287 290 293 292 288 283 279 273 269 266 262 259 253 245 237 234 238 246 255 258 261 260 259 256 254 252 250 248 238 232 234 244 251 258 262 264 263 262 261 261 265 269 273 279 285 291 295 298 297 297 298 299 298 295 289 287 289 291 292 292 288 285 283 281 277 272 268 266 264 262 261 260 262 262 261 257 253 256 260
281 281 281 283 285 287 288 290 289 288 283 280 275 267 259 255 252 252 250 246 241 235 233 233 239 245 249 248 248 248 248 244 241 237 230 220 215 217 228 239 248 255 258 257 255 255 254 259 264 268 272 277 283 287 288 289 290 291 292 292 291 292 295 292 287 282 276 270 266 264 267 270 270 268 268 266 262 259 255 256 258 261 262 252 248 249
279 279 279 285 291 296 297 294 287 278 272 265 260 256 252 247 246 246 244 240 234 227 223 224 231 239 246 246 244 241 239 235 231 227 221 210 204 206 215 227 237 245 250 252 252 251 250 253 258 263 267 272 277 281 282 283 285 286 287 287 290 293 293 287 279 271 269 271 272 273 276 280 281 280 278 274 269 264 259 256 256 259 260 255 248 246
275 275 280 290 300 311 315 308 295 282 270 261 255 251 247 244 244 245 246 244 240 233 229 228 234 245 256 261 259 253 242 231 225 220 214 202 196 197 208 218 228 236 241 245 249 250 250 249 251 254 258 263 269 273 277 280 282 282 281 283 287 291 291 287 286 287 288 290 293 294 294 292 290 287 284 280 276 272 267 263 262 261 258 254 250 247
269 274 281 291 299 301 297 287 277 267 261 257 253 250 245 242 242 244 245 246 245 243 240 239 245 253 261 265 268 267 261 239 222 212 209 200 195 195 204 213 222 231 234 238 243 248 252 249 249 250 252 256 261 265 270 274 277 278 278 278 278 277 276 281 287 289 288 285 282 280 279 280 281 280 281 278 277 273 271 266 262 259 255 251 248 245
260 265 271 276 276 275 267 263 262 262 261 258 256 253 249 245 243 241 239 241 242 242 241 242 248 255 257 257 260 265 268 255 231 213 208 205 201 199 200 207 217 226 231 234 238 242 247 251 252 253 253 254 257 261 265 270 274 276 277 276 274 271 267 271 275 278 277 275 271 268 266 268 272 276 278 277 276 275 273 270 266 262 258 252 247 244
242 245 250 253 256 256 257 257 257 259 259 259 257 255 251 247 243 241 238 238 239 239 238 238 243 252 258 261 264 265 266 262 248 228 212 205 198 195 197 205 212 220 226 231 234 237 241 246 252 257 260 260 259 259 259 264 268 272 274 274 273 272 271 271 271 271 272 272 271 267 264 267 272 277 279 280 279 276 272 268 265 262 259 255 250 246
228 230 233 238 243 246 248 248 250 251 253 254 252 250 248 244 241 239 237 235 235 236 237 237 241 247 254 259 261 262 262 259 251 239 224 210 200 195 195 204 211 217 223 228 232 234 237 239 242 247 254 259 260 260 259 259 261 265 269 271 272 273 273 271 268 265 264 266 268 269 271 274 277 278 279 280 279 276 273 269 266 263 261 259 257 253
228 229 233 238 242 246 248 247 247 247 250 251 250 249 245 241 239 238 238 232 231 234 238 238 241 246 250 251 252 253 255 255 253 249 245 236 221 207 201 203 209 215 222 228 232 235 237 235 233 234 240 247 254 259 260 258 258 260 264 267 270 271 271 270 267 264 263 262 263 263 265 269 272 274 277 279 278 276 274 272 271 268 266 266 265 263
228 229 233 236 240 243 245 245 247 249 251 253 254 253 249 246 243 241 239 233 231 232 235 239 243 245 247 248 248 248 249 251 250 248 248 253 248 236 219 212 212 217 225 231 236 239 241 239 234 232 232 236 243 251 256 256 256 257 260 262 265 267 269 269 268 266 264 261 257 252 248 252 257 261 268 272 274 274 274 273 271 270 268 267 266 265
226 227 229 231 234 238 241 243 245 249 252 255 257 258 258 251 243 237 234 232 232 234 237 239 243 246 248 248 248 247 246 246 244 242 240 245 249 248 239 229 226 230 237 242 246 249 252 249 242 236 231 230 232 237 246 249 252 253 254 255 257 259 262 263 261 258 256 257 253 247 242 245 246 248 253 263 268 271 272 271 270 268 266 263 263 262
225 225 224 226 230 233 236 237 241 245 248 253 257 260 261 258 251 241 233 229 229 233 237 240 243 246 248 249 249 248 247 245 243 240 238 240 243 245 242 238 235 238 246 253 257 258 259 262 258 248 236 227 223 222 228 234 240 245 248 248 248 249 252 254 253 251 250 251 250 248 243 244 244 245 246 256 264 269 272 271 269 267 265 263 263 263